FW2323 Weather Reports


Display with metric or nautical units.
time (UTC)temp
F
wind
direction
speed
MPH
gust
MPH
rain 1hr
in
rain 24hr
in
rain mn
in
humidity
%
barometer
mb
20260505083302 57 133 0.0 0.0 0.00 0.00 0.00 81 1015.6
20260505082802 57 133 0.0 0.0 0.00 0.00 0.00 80 1015.5
20260505082300 57 133 0.0 0.0 0.00 0.00 0.00 80 1015.5
20260505081801 57 136 0.0 0.0 0.00 0.00 0.00 81 1015.5
20260505080802 58 134 0.0 0.0 0.00 0.00 0.00 78 1015.5
20260505080302 58 134 0.0 0.0 0.00 0.00 0.00 77 1015.5
20260505075301 58 244 0.0 0.0 0.00 0.00 0.00 78 1015.3
20260505074801 58 244 0.0 2.0 0.00 0.00 0.00 77 1015.3
20260505074302 58 306 2.0 0.0 0.00 0.00 0.00 75 1015.0
20260505073802 58 336 2.0 2.0 0.00 0.00 0.00 73 1015.0
20260505073301 58 322 2.0 6.0 0.00 0.00 0.00 71 1015.0
20260505072801 58 22 2.0 6.0 0.00 0.00 0.00 69 1014.9
20260505072301 58 19 1.0 6.0 0.00 0.00 0.00 68 1014.9
20260505071802 59 32 1.0 6.0 0.00 0.00 0.00 68 1014.9
20260505070801 59 24 1.0 5.0 0.00 0.00 0.00 67 1014.8
20260505065801 59 352 2.0 6.0 0.00 0.00 0.00 65 1014.9
20260505065303 59 30 5.0 6.0 0.00 0.00 0.00 64 1014.9
20260505064801 59 14 5.0 7.0 0.00 0.00 0.00 63 1014.9
20260505064301 59 331 2.0 8.0 0.00 0.00 0.00 63 1014.9
20260505063801 58 305 2.0 9.0 0.00 0.00 0.00 64 1014.9
20260505062801 58 272 1.0 7.0 0.00 0.00 0.00 65 1014.9
20260505062301 58 275 1.0 7.0 0.00 0.00 0.00 65 1014.9
20260505061801 58 295 1.0 7.0 0.00 0.00 0.00 65 1014.9
20260505061303 58 318 0.0 0.0 0.00 0.00 0.00 65 1014.9
20260505060802 58 23 0.0 6.0 0.00 0.00 0.00 66 1014.9
20260505060301 58 16 0.0 5.0 0.00 0.00 0.00 65 1014.9
20260505055802 58 259 0.0 0.0 0.00 0.00 0.00 65 1014.8
20260505055301 57 303 0.0 0.0 0.00 0.00 0.00 66 1014.8
20260505054301 58 31 0.0 0.0 0.00 0.00 0.00 65 1014.7
20260505053801 58 312 0.0 0.0 0.00 0.00 0.00 65 1014.7
20260505053302 58 303 1.0 0.0 0.00 0.00 0.00 65 1014.7
20260505052801 58 307 1.0 0.0 0.00 0.00 0.00 65 1014.7
20260505052304 58 298 2.0 6.0 0.00 0.00 0.00 65 1014.7
20260505051802 58 274 2.0 5.0 0.00 0.00 0.00 66 1014.7
20260505051301 58 224 1.0 5.0 0.00 0.00 0.00 65 1014.7
20260505050802 58 250 1.0 5.0 0.00 0.00 0.00 66 1014.7
20260505050301 57 254 0.0 7.0 0.00 0.00 0.00 66 1014.7
20260505041301 57 304 2.0 0.0 0.00 0.00 0.00 66 1014.8
20260505040803 57 301 2.0 6.0 0.00 0.00 0.00 66 1014.8
20260505040302 57 300 0.0 8.0 0.00 0.00 0.00 67 1014.8
20260505035801 57 299 0.0 0.0 0.00 0.00 0.00 66 1014.8
20260505035301 57 301 0.0 0.0 0.00 0.00 0.00 65 1014.8
20260505034802 57 301 0.0 0.0 0.00 0.00 0.00 65 1014.8
20260505034302 57 301 0.0 0.0 0.00 0.00 0.00 64 1014.8
20260505033801 57 301 0.0 0.0 0.00 0.00 0.00 64 1014.8
20260505033302 57 300 0.0 0.0 0.00 0.00 0.00 63 1014.8
20260505032801 58 6 0.0 0.0 0.00 0.00 0.00 63 1014.9
20260505032304 57 320 1.0 0.0 0.00 0.00 0.00 63 1014.9
20260505031801 57 333 1.0 0.0 0.00 0.00 0.00 63 1014.9
20260505031302 57 318 1.0 2.0 0.00 0.00 0.00 64 1015.1
20260505030801 56 311 1.0 7.0 0.00 0.00 0.00 65 1015.1
20260505030303 56 299 0.0 6.0 0.00 0.00 0.00 66 1015.1
20260505025301 55 270 0.0 0.0 0.00 0.00 0.00 67 1015.3
20260505024803 55 302 0.0 0.0 0.00 0.00 0.00 67 1015.3
20260505024301 55 303 0.0 0.0 0.00 0.00 0.00 67 1015.2
20260505023802 55 290 0.0 0.0 0.00 0.00 0.00 67 1015.2
20260505023302 55 290 0.0 0.0 0.00 0.00 0.00 66 1015.2
20260505022304 55 290 0.0 0.0 0.00 0.00 0.00 66 1015.3
20260505021802 55 290 0.0 2.0 0.00 0.00 0.00 65 1015.3
20260505021301 55 290 0.0 0.0 0.00 0.00 0.00 65 1015.5
20260505015802 56 295 0.0 0.0 0.00 0.00 0.00 63 1015.5
20260505015303 56 296 0.0 0.0 0.00 0.00 0.00 63 1015.5
20260505014801 57 298 0.0 0.0 0.00 0.00 0.00 62 1015.5
20260505013802 57 302 1.0 0.0 0.00 0.00 0.00 60 1015.7
20260505012803 57 328 0.0 5.0 0.00 0.00 0.00 61 1015.8
20260505011801 56 296 0.0 0.0 0.00 0.00 0.00 63 1015.8
20260505010802 56 200 0.0 0.0 0.00 0.00 0.00 64 1016.0
20260505010302 56 230 0.0 0.0 0.00 0.00 0.00 64 1016.0
20260505005802 56 225 0.0 0.0 0.00 0.00 0.00 65 1016.2
20260505005303 56 216 0.0 0.0 0.00 0.00 0.00 66 1016.2
20260505004802 55 260 0.0 0.0 0.00 0.00 0.00 67 1016.2
20260505004302 55 225 0.0 0.0 0.00 0.00 0.00 67 1016.4
20260505003802 55 226 0.0 0.0 0.00 0.00 0.00 67 1016.4
20260505003301 56 227 0.0 0.0 0.00 0.00 0.00 67 1016.4
20260505002803 56 225 0.0 0.0 0.00 0.00 0.00 66 1016.4
20260505002304 57 225 0.0 0.0 0.00 0.00 0.00 64 1016.4
20260505001802 57 226 0.0 0.0 0.00 0.00 0.00 64 1016.4
20260505001301 57 226 0.0 0.0 0.00 0.00 0.00 63 1016.6
20260505000802 57 226 0.0 0.0 0.00 0.00 0.00 63 1016.6
20260505000302 57 226 0.0 0.0 0.00 0.00 0.00 62 1016.6
20260504235304 57 226 0.0 0.0 0.00 0.00 0.00 63 1016.5
20260504234801 57 226 0.0 0.0 0.00 0.00 0.00 62 1016.5
20260504234302 57 226 0.0 0.0 0.00 0.00 0.00 62 1016.7
20260504233802 57 226 0.0 0.0 0.00 0.00 0.00 62 1016.7
20260504233303 57 230 0.0 0.0 0.00 0.00 0.00 62 1016.7
20260504232802 57 230 0.0 0.0 0.00 0.00 0.00 61 1016.8
20260504232303 57 230 0.0 0.0 0.00 0.00 0.00 61 1016.8
20260504231802 58 230 0.0 0.0 0.00 0.00 0.00 61 1016.8
20260504231301 58 230 0.0 0.0 0.00 0.00 0.00 60 1016.9
20260504230303 58 228 0.0 0.0 0.00 0.00 0.00 60 1016.9
20260504225802 58 228 0.0 0.0 0.00 0.00 0.00 59 1017.1
20260504225304 58 229 0.0 0.0 0.00 0.00 0.00 59 1017.1
20260504224802 58 230 0.0 0.0 0.00 0.00 0.00 59 1017.1
20260504224301 58 230 0.0 0.0 0.00 0.00 0.00 58 1017.1
20260504223802 58 230 0.0 0.0 0.00 0.00 0.00 57 1017.1
20260504223302 58 230 0.0 0.0 0.00 0.00 0.00 57 1017.1
20260504222801 58 234 0.0 0.0 0.00 0.00 0.00 57 1017.2
20260504222304 58 233 0.0 0.0 0.00 0.00 0.00 56 1017.2
20260504221801 59 230 0.0 0.0 0.00 0.00 0.00 56 1017.2
20260504221302 59 231 0.0 0.0 0.00 0.00 0.00 56 1017.3
20260504220802 60 235 0.0 0.0 0.00 0.00 0.00 55 1017.3
20260504220302 60 227 0.0 0.0 0.00 0.00 0.00 55 1017.3
20260504215802 60 231 0.0 0.0 0.00 0.00 0.00 55 1017.3
20260504214801 60 231 0.0 0.0 0.00 0.00 0.00 55 1017.3
20260504214303 60 231 0.0 0.0 0.00 0.00 0.00 55 1017.5
20260504213801 60 231 0.0 0.0 0.00 0.00 0.00 55 1017.5
20260504213302 60 232 0.0 0.0 0.00 0.00 0.00 55 1017.5
20260504212802 60 232 0.0 0.0 0.00 0.00 0.00 55 1017.5
20260504212303 60 232 0.0 0.0 0.00 0.00 0.00 55 1017.5
20260504211802 60 234 0.0 0.0 0.00 0.00 0.00 55 1017.5
20260504211302 60 225 0.0 0.0 0.00 0.00 0.00 55 1017.6
20260504210802 60 224 0.0 0.0 0.00 0.00 0.00 56 1017.6
20260504210302 60 224 0.0 0.0 0.00 0.00 0.00 55 1017.6
20260504205803 60 224 0.0 0.0 0.00 0.00 0.00 55 1017.5
20260504204802 61 224 0.0 0.0 0.00 0.00 0.00 55 1017.5
20260504204301 61 223 0.0 0.0 0.00 0.00 0.00 54 1017.5
20260504203802 61 223 0.0 0.0 0.00 0.00 0.00 54 1017.5
20260504203302 62 223 0.0 0.0 0.00 0.00 0.00 53 1017.5
20260504202802 62 223 0.0 0.0 0.00 0.00 0.00 52 1017.3
20260504202304 63 223 0.0 0.0 0.00 0.00 0.00 51 1017.3
20260504201802 63 230 0.0 0.0 0.00 0.00 0.00 50 1017.3
20260504201302 64 253 0.0 0.0 0.00 0.00 0.00 49 1017.3
20260504200302 64 270 1.0 0.0 0.00 0.00 0.00 48 1017.3
20260504194802 65 208 0.0 7.0 0.00 0.00 0.00 48 1017.1
20260504193802 65 210 0.0 0.0 0.00 0.00 0.00 47 1017.0
20260504193303 65 200 0.0 0.0 0.00 0.00 0.00 47 1017.0
20260504192802 65 202 0.0 5.0 0.00 0.00 0.00 46 1017.0
20260504192304 66 201 2.0 0.0 0.00 0.00 0.00 46 1017.0
20260504191801 66 206 2.0 6.0 0.00 0.00 0.00 45 1017.0
20260504191302 66 200 2.0 5.0 0.00 0.00 0.00 45 1016.8
20260504190803 66 200 2.0 7.0 0.00 0.00 0.00 45 1016.8
20260504190307 66 207 2.0 7.0 0.00 0.00 0.00 46 1016.8
20260504185802 66 195 2.0 6.0 0.00 0.00 0.00 45 1016.7
20260504185304 67 213 2.0 1.0 0.00 0.00 0.00 45 1016.7
20260504184802 67 216 2.0 7.0 0.00 0.00 0.00 45 1016.7
20260504184304 67 209 1.0 7.0 0.00 0.00 0.00 44 1016.7
20260504183802 67 198 1.0 7.0 0.00 0.00 0.00 44 1016.7
20260504183302 68 193 2.0 6.0 0.00 0.00 0.00 44 1016.7
20260504182802 68 212 2.0 10.0 0.00 0.00 0.00 43 1016.5
20260504181802 68 157 2.0 9.0 0.00 0.00 0.00 43 1016.5
20260504181302 69 203 2.0 8.0 0.00 0.00 0.00 44 1016.4
20260504180802 69 221 2.0 0.0 0.00 0.00 0.00 43 1016.4
20260504180301 69 221 2.0 0.0 0.00 0.00 0.00 43 1016.4
20260504175803 69 221 2.0 0.0 0.00 0.00 0.00 43 1016.3
20260504175304 69 216 2.0 5.0 0.00 0.00 0.00 43 1016.3
20260504174804 69 206 2.0 8.0 0.00 0.00 0.00 44 1016.3
20260504174302 69 211 1.0 9.0 0.00 0.00 0.00 44 1016.2
20260504173302 69 216 0.0 5.0 0.00 0.00 0.00 43 1016.2
20260504172802 70 193 0.0 7.0 0.00 0.00 0.00 43 1016.1
20260504172304 70 211 1.0 0.0 0.00 0.00 0.00 42 1016.1
20260504171805 71 199 1.0 0.0 0.00 0.00 0.00 42 1016.1
20260504171305 71 203 2.0 5.0 0.00 0.00 0.00 41 1016.4
20260504170805 71 199 2.0 7.0 0.00 0.00 0.00 40 1016.4
20260504170302 72 208 2.0 14.0 0.00 0.00 0.00 40 1016.4
20260504150805 77 169 1.0 8.0 0.00 0.00 0.00 33 1016.0
20260504150304 77 159 1.0 3.0 0.00 0.00 0.00 32 1016.0
20260504140808 78 222 1.0 10.0 0.00 0.00 0.00 30 1016.3
20260504130805 76 84 2.0 12.0 0.00 0.00 0.00 32 1016.9
20260504130305 76 118 2.0 7.0 0.00 0.00 0.00 33 1016.9
20260504120306 76 189 2.0 10.0 0.00 0.00 0.00 34 1017.2
20260504110303 76 110 3.0 9.0 0.00 0.00 0.00 36 1017.5
20260504100303 73 89 2.0 12.0 0.00 0.00 0.00 40 1018.2